30-09-2022, 00:00:00,    319,    0.3,    7.6,   0.00,   0.00, 1006.9,   98.9, -999.0
30-09-2022, 00:00:10,    320,    0.5,    7.5,   0.00,   0.00, 1006.8,   98.9, -999.0
30-09-2022, 00:00:20,    319,    0.2,    7.5,   0.00,   0.00, 1006.8,   98.9, -999.0
30-09-2022, 00:00:30,    319,    0.0,    7.4,   0.00,   0.00, 1006.7,   98.5, -999.0
30-09-2022, 00:00:40,    319,    0.0,    7.5,   0.00,   0.00, 1006.8,   98.7, -999.0
30-09-2022, 00:00:50,    320,    0.0,    7.5,   0.00,   0.00, 1006.7,   98.6, -999.0
30-09-2022, 00:01:00,    319,    0.0,    7.5,   0.00,   0.00, 1006.7,   98.6, -999.0
30-09-2022, 00:01:10,    319,    0.0,    7.5,   0.00,   0.00, 1006.7,   98.6, -999.0
30-09-2022, 00:01:20,    319,    0.0,    7.3,   0.00,   0.00, 1006.7,   98.6, -999.0
30-09-2022, 00:01:30,    319,    0.0,    7.4,   0.00,   0.00, 1006.7,   98.6, -999.0
30-09-2022, 00:01:40,    319,    0.0,    7.3,   0.00,   0.00, 1006.7,   98.6, -999.0
30-09-2022, 00:01:49,    319,    0.0,    7.4,   0.00,   0.00, 1006.7,   98.6, -999.0
30-09-2022, 00:01:59,    319,    0.0,    7.4,   0.00,   0.00, 1006.7,   98.6, -999.0
30-09-2022, 00:02:10,    319,    0.0,    7.4,   0.00,   0.00, 1006.7,   98.6, -999.0
30-09-2022, 00:02:19,    319,    0.0,    7.3,   0.00,   0.00, 1006.7,   98.6, -999.0
30-09-2022, 00:02:29,    320,    0.0,    7.4,   0.00,   0.00, 1006.7,   98.6, -999.0
30-09-2022, 00:02:39,    319,    0.0,    7.4,   0.00,   0.00, 1006.7,   98.6, -999.0
30-09-2022, 00:02:49,    319,    0.0,    7.4,   0.00,   0.00, 1006.7,   98.6, -999.0
30-09-2022, 00:02:59,    319,    0.0,    7.4,   0.00,   0.00, 1006.7,   98.6, -999.0
30-09-2022, 00:03:09,    319,    0.0,    7.5,   0.00,   0.00, 1006.7,   98.6, -999.0
30-09-2022, 00:03:19,    319,    0.0,    7.5,   0.00,   0.00, 1006.7,   98.6, -999.0
30-09-2022, 00:03:29,    319,    0.0,    7.5,   0.00,   0.00, 1006.7,   98.6, -999.0
30-09-2022, 00:03:39,    319,    0.0,    7.4,   0.00,   0.00, 1006.7,   98.6, -999.0
30-09-2022, 00:03:49,    319,    0.0,    7.4,   0.00,   0.00, 1006.7,   98.6, -999.0
30-09-2022, 00:03:59,    319,    0.0,    7.4,   0.00,   0.00, 1006.7,   98.6, -999.0
30-09-2022, 00:04:09,    319,    0.0,    7.4,   0.00,   0.00, 1006.7,   98.6, -999.0
30-09-2022, 00:04:19,    319,    0.0,    7.4,   0.00,   0.00, 1006.7,   98.6, -999.0
30-09-2022, 00:04:29,    319,    0.0,    7.5,   0.00,   0.00, 1006.7,   98.6, -999.0
30-09-2022, 00:04:39,    319,    0.0,    7.4,   0.00,   0.00, 1006.7,   98.7, -999.0
30-09-2022, 00:04:49,    319,    0.0,    7.4,   0.00,   0.00, 1006.7,   98.5, -999.0
30-09-2022, 00:04:59,    319,    0.0,    7.4,   0.00,   0.00, 1006.7,   98.5, -999.0
30-09-2022, 00:05:08,    319,    0.0,    7.4,   0.00,   0.00, 1006.7,   98.6, -999.0
30-09-2022, 00:05:19,    319,    0.0,    7.4,   0.00,   0.00, 1006.7,   98.6, -999.0
30-09-2022, 00:05:28,    320,    0.0,    7.3,   0.00,   0.00, 1006.7,   98.6, -999.0
30-09-2022, 00:05:38,    319,    0.0,    7.4,   0.00,   0.00, 1006.7,   98.6, -999.0
30-09-2022, 00:05:48,    319,    0.0,    7.4,   0.00,   0.00, 1006.7,   98.6, -999.0
30-09-2022, 00:05:58,    319,    0.0,    7.3,   0.00,   0.00, 1006.7,   98.6, -999.0
30-09-2022, 00:06:08,    319,    0.0,    7.4,   0.00,   0.00, 1006.7,   98.6, -999.0
30-09-2022, 00:06:18,    319,    0.0,    7.3,   0.00,   0.00, 1006.7,   98.6, -999.0
30-09-2022, 00:06:28,    319,    0.0,    7.3,   0.00,   0.00, 1006.7,   98.6, -999.0
30-09-2022, 00:06:38,    319,    0.0,    7.3,   0.00,   0.00, 1006.7,   98.6, -999.0
30-09-2022, 00:06:48,    319,    0.0,    7.2,   0.00,   0.00, 1006.7,   98.6, -999.0
30-09-2022, 00:06:58,    319,    0.0,    7.2,   0.00,   0.00, 1006.7,   98.6, -999.0
30-09-2022, 00:07:08,    319,    0.0,    7.2,   0.00,   0.00, 1006.6,   98.6, -999.0
30-09-2022, 00:07:18,    319,    0.0,    7.3,   0.00,   0.00, 1006.7,   98.6, -999.0
30-09-2022, 00:07:28,    319,    0.0,    7.3,   0.00,   0.00, 1006.7,   98.6, -999.0
30-09-2022, 00:07:38,    319,    0.0,    7.3,   0.00,   0.00, 1006.7,   98.5, -999.0
30-09-2022, 00:07:48,    319,    0.0,    7.3,   0.00,   0.00, 1006.6,   98.6, -999.0
30-09-2022, 00:07:58,    319,    0.0,    7.3,   0.00,   0.00, 1006.6,   98.6, -999.0
30-09-2022, 00:08:08,    319,    0.0,    7.3,   0.00,   0.00, 1006.7,   98.6, -999.0
30-09-2022, 00:08:17,    319,    0.0,    7.3,   0.00,   0.00, 1006.6,   98.6, -999.0
30-09-2022, 00:08:28,    320,    0.0,    7.3,   0.00,   0.00, 1006.7,   98.6, -999.0
30-09-2022, 00:08:37,    319,    0.0,    7.3,   0.00,   0.00, 1006.7,   98.6, -999.0
30-09-2022, 00:08:47,    319,    0.0,    7.2,   0.00,   0.00, 1006.6,   98.6, -999.0
30-09-2022, 00:08:58,    319,    0.0,    7.2,   0.00,   0.00, 1006.7,   98.6, -999.0
30-09-2022, 00:09:07,    319,    0.0,    7.2,   0.00,   0.00, 1006.7,   98.5, -999.0
30-09-2022, 00:09:17,    319,    0.0,    7.3,   0.00,   0.00, 1006.7,   98.6, -999.0
30-09-2022, 00:09:27,    319,    0.0,    7.2,   0.00,   0.00, 1006.6,   98.6, -999.0
30-09-2022, 00:09:37,    319,    0.0,    7.2,   0.00,   0.00, 1006.6,   98.6, -999.0
30-09-2022, 00:09:47,    319,    0.0,    7.3,   0.00,   0.00, 1006.6,   98.6, -999.0
30-09-2022, 00:09:57,    319,    0.0,    7.3,   0.00,   0.00, 1006.6,   98.6, -999.0
30-09-2022, 00:10:07,    319,    0.0,    7.3,   0.00,   0.00, 1006.7,   98.6, -999.0
30-09-2022, 00:10:17,    319,    0.0,    7.2,   0.00,   0.00, 1006.6,   98.6, -999.0
30-09-2022, 00:10:27,    319,    0.0,    7.3,   0.00,   0.00, 1006.6,   98.6, -999.0
30-09-2022, 00:10:37,    319,    0.0,    7.3,   0.00,   0.00, 1006.6,   98.6, -999.0
30-09-2022, 00:10:47,    319,    0.0,    7.2,   0.00,   0.00, 1006.7,   98.6, -999.0
30-09-2022, 00:10:57,    319,    0.0,    7.3,   0.00,   0.00, 1006.7,   98.6, -999.0
30-09-2022, 00:11:07,    319,    0.0,    7.3,   0.00,   0.00, 1006.7,   98.7, -999.0
30-09-2022, 00:11:17,    320,    0.0,    7.3,   0.00,   0.00, 1006.7,   98.6, -999.0
30-09-2022, 00:11:26,    319,    0.0,    7.3,   0.00,   0.00, 1006.7,   98.6, -999.0
30-09-2022, 00:11:37,    319,    0.0,    7.3,   0.00,   0.00, 1006.6,   98.7, -999.0
30-09-2022, 00:11:46,    319,    0.0,    7.3,   0.00,   0.00, 1006.7,   98.6, -999.0
30-09-2022, 00:11:56,    319,    0.0,    7.3,   0.00,   0.00, 1006.7,   98.6, -999.0
30-09-2022, 00:12:07,    319,    0.0,    7.3,   0.00,   0.00, 1006.7,   98.6, -999.0
30-09-2022, 00:12:16,    320,    0.0,    7.3,   0.00,   0.00, 1006.6,   98.6, -999.0
30-09-2022, 00:12:26,    319,    0.0,    7.3,   0.00,   0.00, 1006.6,   98.6, -999.0
30-09-2022, 00:12:36,    319,    0.0,    7.3,   0.00,   0.00, 1006.6,   98.6, -999.0
30-09-2022, 00:12:46,    319,    0.0,    7.3,   0.00,   0.00, 1006.6,   98.7, -999.0
30-09-2022, 00:12:56,    319,    0.0,    7.3,   0.00,   0.00, 1006.6,   98.6, -999.0
30-09-2022, 00:13:06,    319,    0.0,    7.3,   0.00,   0.00, 1006.6,   98.7, -999.0
30-09-2022, 00:13:16,    319,    0.0,    7.2,   0.00,   0.00, 1006.6,   98.7, -999.0
30-09-2022, 00:13:26,    320,    0.0,    7.2,   0.00,   0.00, 1006.6,   98.7, -999.0
30-09-2022, 00:13:36,    319,    0.0,    7.3,   0.00,   0.00, 1006.6,   98.6, -999.0
30-09-2022, 00:13:46,    319,    0.0,    7.3,   0.00,   0.00, 1006.6,   98.6, -999.0
30-09-2022, 00:13:56,    319,    0.0,    7.3,   0.00,   0.00, 1006.6,   98.6, -999.0
30-09-2022, 00:14:06,    319,    0.0,    7.3,   0.00,   0.00, 1006.6,   98.6, -999.0
30-09-2022, 00:14:16,    319,    0.0,    7.3,   0.00,   0.00, 1006.5,   98.6, -999.0
30-09-2022, 00:14:26,    318,    0.0,    7.2,   0.00,   0.00, 1006.6,   98.6, -999.0
30-09-2022, 00:14:35,    319,    0.0,    7.3,   0.00,   0.00, 1006.6,   98.6, -999.0
30-09-2022, 00:14:46,    319,    0.0,    7.3,   0.00,   0.00, 1006.6,   98.6, -999.0
30-09-2022, 00:14:56,    319,    0.0,    7.3,   0.00,   0.00, 1006.5,   98.6, -999.0
30-09-2022, 00:15:05,    319,    0.0,    7.2,   0.00,   0.00, 1006.5,   98.6, -999.0
30-09-2022, 00:15:16,    319,    0.0,    7.2,   0.00,   0.00, 1006.6,   98.6, -999.0
30-09-2022, 00:15:25,    319,    0.0,    7.2,   0.00,   0.00, 1006.6,   98.7, -999.0
30-09-2022, 00:15:35,    319,    0.0,    7.3,   0.00,   0.00, 1006.6,   98.6, -999.0
30-09-2022, 00:15:45,    319,    0.0,    7.3,   0.00,   0.00, 1006.5,   98.6, -999.0
30-09-2022, 00:15:55,    319,    0.0,    7.3,   0.00,   0.00, 1006.5,   98.6, -999.0
30-09-2022, 00:16:05,    320,    0.0,    7.3,   0.00,   0.00, 1006.5,   98.6, -999.0
30-09-2022, 00:16:15,    319,    0.0,    7.3,   0.00,   0.00, 1006.5,   98.6, -999.0
30-09-2022, 00:16:25,    319,    0.0,    7.3,   0.00,   0.00, 1006.5,   98.6, -999.0
30-09-2022, 00:16:35,    319,    0.0,    7.3,   0.00,   0.00, 1006.5,   98.6, -999.0
30-09-2022, 00:16:45,    319,    0.0,    7.3,   0.00,   0.00, 1006.5,   98.6, -999.0
30-09-2022, 00:16:55,    319,    0.0,    7.3,   0.00,   0.00, 1006.5,   98.6, -999.0
30-09-2022, 00:17:05,    319,    0.0,    7.4,   0.00,   0.00, 1006.5,   98.6, -999.0
30-09-2022, 00:17:15,    319,    0.0,    7.5,   0.00,   0.00, 1006.6,   98.6, -999.0
30-09-2022, 00:17:25,    319,    0.0,    7.4,   0.00,   0.00, 1006.5,   98.6, -999.0
30-09-2022, 00:17:35,    319,    0.0,    7.4,   0.00,   0.00, 1006.6,   98.6, -999.0
30-09-2022, 00:17:45,    319,    0.0,    7.5,   0.00,   0.00, 1006.5,   98.6, -999.0
30-09-2022, 00:17:55,    319,    0.0,    7.5,   0.00,   0.00, 1006.5,   98.6, -999.0
30-09-2022, 00:18:05,    319,    0.0,    7.5,   0.00,   0.00, 1006.5,   98.7, -999.0
30-09-2022, 00:18:14,    319,    0.0,    7.5,   0.00,   0.00, 1006.5,   98.6, -999.0
30-09-2022, 00:18:25,    319,    0.0,    7.5,   0.00,   0.00, 1006.5,   98.6, -999.0
30-09-2022, 00:18:35,    319,    0.0,    7.5,   0.00,   0.00, 1006.5,   98.6, -999.0
30-09-2022, 00:18:44,    319,    0.0,    7.4,   0.00,   0.00, 1006.5,   98.6, -999.0
30-09-2022, 00:18:54,    319,    0.0,    7.4,   0.00,   0.00, 1006.5,   98.6, -999.0
30-09-2022, 00:19:06,    319,    0.0,    7.3,   0.00,   0.00, 1006.5,   98.6, -999.0
30-09-2022, 00:19:14,    319,    0.0,    7.4,   0.00,   0.00, 1006.5,   98.6, -999.0
30-09-2022, 00:19:24,    319,    0.0,    7.4,   0.00,   0.00, 1006.5,   98.6, -999.0
30-09-2022, 00:19:34,    319,    0.0,    7.4,   0.00,   0.00, 1006.6,   98.7, -999.0
30-09-2022, 00:19:44,    319,    0.0,    7.4,   0.00,   0.00, 1006.6,   98.5, -999.0
30-09-2022, 00:19:54,    319,    0.0,    7.4,   0.00,   0.00, 1006.5,   98.6, -999.0
30-09-2022, 00:20:04,    319,    0.0,    7.4,   0.00,   0.00, 1006.6,   98.6, -999.0
30-09-2022, 00:20:14,    319,    0.0,    7.3,   0.00,   0.00, 1006.6,   98.6, -999.0
30-09-2022, 00:20:24,    319,    0.0,    7.3,   0.00,   0.00, 1006.6,   98.6, -999.0
30-09-2022, 00:20:34,    319,    0.0,    7.3,   0.00,   0.00, 1006.6,   98.5, -999.0
30-09-2022, 00:20:44,    319,    0.0,    7.2,   0.00,   0.00, 1006.6,   98.6, -999.0
30-09-2022, 00:20:54,    319,    0.0,    7.2,   0.00,   0.00, 1006.6,   98.6, -999.0
30-09-2022, 00:21:04,    319,    0.0,    7.3,   0.00,   0.00, 1006.6,   98.6, -999.0
30-09-2022, 00:21:14,    319,    0.0,    7.3,   0.00,   0.00, 1006.6,   98.7, -999.0
30-09-2022, 00:21:23,    319,    0.0,    7.3,   0.00,   0.00, 1006.6,   98.6, -999.0
30-09-2022, 00:21:34,    319,    0.0,    7.3,   0.00,   0.00, 1006.6,   98.6, -999.0
30-09-2022, 00:21:44,    319,    0.0,    7.3,   0.00,   0.00, 1006.6,   98.6, -999.0
30-09-2022, 00:21:53,    319,    0.0,    7.3,   0.00,   0.00, 1006.6,   98.6, -999.0
30-09-2022, 00:22:03,    319,    0.0,    7.3,   0.00,   0.00, 1006.7,   98.6, -999.0
30-09-2022, 00:22:13,    319,    0.0,    7.3,   0.00,   0.00, 1006.6,   98.6, -999.0
30-09-2022, 00:22:23,    319,    0.0,    7.3,   0.00,   0.00, 1006.6,   98.6, -999.0
30-09-2022, 00:22:33,    319,    0.0,    7.2,   0.00,   0.00, 1006.6,   98.6, -999.0
30-09-2022, 00:22:43,    319,    0.0,    7.3,   0.00,   0.00, 1006.6,   98.6, -999.0
30-09-2022, 00:22:53,    319,    0.0,    7.3,   0.00,   0.00, 1006.6,   98.6, -999.0
30-09-2022, 00:23:03,    319,    0.0,    7.3,   0.00,   0.00, 1006.6,   98.6, -999.0
30-09-2022, 00:23:13,    319,    0.0,    7.2,   0.00,   0.00, 1006.6,   98.6, -999.0
30-09-2022, 00:23:23,    319,    0.0,    7.3,   0.00,   0.00, 1006.6,   98.6, -999.0
30-09-2022, 00:23:33,    319,    0.0,    7.2,   0.00,   0.00, 1006.6,   98.6, -999.0
30-09-2022, 00:23:43,    319,    0.0,    7.2,   0.00,   0.00, 1006.6,   98.7, -999.0
30-09-2022, 00:23:53,    319,    0.0,    7.1,   0.00,   0.00, 1006.6,   98.6, -999.0
30-09-2022, 00:24:03,    319,    0.0,    7.2,   0.00,   0.00, 1006.6,   98.6, -999.0
30-09-2022, 00:24:13,    319,    0.0,    7.2,   0.00,   0.00, 1006.6,   98.6, -999.0
30-09-2022, 00:24:23,    319,    0.0,    7.1,   0.00,   0.00, 1006.6,   98.6, -999.0
30-09-2022, 00:24:32,    319,    0.0,    7.1,   0.00,   0.00, 1006.6,   98.6, -999.0
30-09-2022, 00:24:43,    319,    0.0,    7.1,   0.00,   0.00, 1006.6,   98.6, -999.0
30-09-2022, 00:24:53,    319,    0.0,    7.1,   0.00,   0.00, 1006.6,   98.7, -999.0
30-09-2022, 00:25:02,    319,    0.0,    7.0,   0.00,   0.00, 1006.6,   98.6, -999.0
30-09-2022, 00:25:12,    319,    0.0,    7.0,   0.00,   0.00, 1006.6,   98.6, -999.0
30-09-2022, 00:25:23,    319,    0.0,    6.9,   0.00,   0.00, 1006.6,   98.6, -999.0
30-09-2022, 00:25:32,    319,    0.0,    7.0,   0.00,   0.00, 1006.6,   98.6, -999.0
30-09-2022, 00:25:42,    319,    0.0,    7.0,   0.00,   0.00, 1006.6,   98.6, -999.0
30-09-2022, 00:25:52,    320,    0.0,    7.0,   0.00,   0.00, 1006.6,   98.5, -999.0
30-09-2022, 00:26:02,    320,    0.0,    7.0,   0.00,   0.00, 1006.6,   98.6, -999.0
30-09-2022, 00:26:12,    319,    0.0,    7.0,   0.00,   0.00, 1006.6,   98.6, -999.0
30-09-2022, 00:26:22,    319,    0.0,    6.9,   0.00,   0.00, 1006.6,   98.6, -999.0
30-09-2022, 00:26:32,    319,    0.0,    6.9,   0.00,   0.00, 1006.6,   98.6, -999.0
30-09-2022, 00:26:42,    319,    0.0,    6.9,   0.00,   0.00, 1006.6,   98.6, -999.0
30-09-2022, 00:26:52,    319,    0.0,    7.0,   0.00,   0.00, 1006.6,   98.6, -999.0
30-09-2022, 00:27:02,    319,    0.0,    7.0,   0.00,   0.00, 1006.6,   98.7, -999.0
30-09-2022, 00:27:12,    319,    0.0,    6.9,   0.00,   0.00, 1006.6,   98.6, -999.0
30-09-2022, 00:27:22,    319,    0.0,    7.0,   0.00,   0.00, 1006.6,   98.6, -999.0
30-09-2022, 00:27:32,    319,    0.0,    7.0,   0.00,   0.00, 1006.7,   98.6, -999.0
30-09-2022, 00:27:41,    319,    0.0,    7.0,   0.00,   0.00, 1006.6,   98.6, -999.0
30-09-2022, 00:27:52,    319,    0.0,    7.0,   0.00,   0.00, 1006.6,   98.6, -999.0
30-09-2022, 00:28:02,    320,    0.0,    7.0,   0.00,   0.00, 1006.6,   98.6, -999.0
30-09-2022, 00:28:11,    319,    0.0,    7.0,   0.00,   0.00, 1006.6,   98.6, -999.0
30-09-2022, 00:28:21,    319,    0.0,    7.1,   0.00,   0.00, 1006.7,   98.6, -999.0
30-09-2022, 00:28:32,    319,    0.0,    7.0,   0.00,   0.00, 1006.6,   98.6, -999.0
30-09-2022, 00:28:41,    319,    0.0,    6.9,   0.00,   0.00, 1006.7,   98.6, -999.0
30-09-2022, 00:28:51,    319,    0.0,    7.0,   0.00,   0.00, 1006.6,   98.6, -999.0
30-09-2022, 00:29:01,    319,    0.0,    6.9,   0.00,   0.00, 1006.6,   98.6, -999.0
30-09-2022, 00:29:11,    319,    0.0,    6.9,   0.00,   0.00, 1006.6,   98.6, -999.0
30-09-2022, 00:29:21,    320,    0.0,    6.9,   0.00,   0.00, 1006.7,   98.6, -999.0
30-09-2022, 00:29:31,    319,    0.0,    6.9,   0.00,   0.00, 1006.6,   98.6, -999.0
30-09-2022, 00:29:41,    319,    0.0,    6.9,   0.00,   0.00, 1006.6,   98.6, -999.0
30-09-2022, 00:29:51,    319,    0.0,    6.9,   0.00,   0.00, 1006.6,   98.6, -999.0
30-09-2022, 00:30:01,    319,    0.0,    6.9,   0.00,   0.00, 1006.6,   98.6, -999.0
30-09-2022, 00:30:11,    319,    0.0,    6.8,   0.00,   0.00, 1006.6,   98.6, -999.0
30-09-2022, 00:30:21,    319,    0.0,    6.8,   0.00,   0.00, 1006.6,   98.7, -999.0
30-09-2022, 00:30:31,    319,    0.0,    6.8,   0.00,   0.00, 1006.6,   98.5, -999.0
30-09-2022, 00:30:41,    319,    0.0,    6.8,   0.00,   0.00, 1006.6,   98.6, -999.0
30-09-2022, 00:30:51,    319,    0.0,    6.8,   0.00,   0.00, 1006.6,   98.6, -999.0
30-09-2022, 00:31:01,    320,    0.0,    6.8,   0.00,   0.00, 1006.6,   98.6, -999.0
30-09-2022, 00:31:11,    319,    0.0,    6.8,   0.00,   0.00, 1006.6,   98.6, -999.0
30-09-2022, 00:31:21,    319,    0.0,    6.8,   0.00,   0.00, 1006.6,   98.7, -999.0
30-09-2022, 00:31:30,    319,    0.0,    6.6,   0.00,   0.00, 1006.6,   98.6, -999.0
30-09-2022, 00:31:41,    319,    0.0,    6.7,   0.00,   0.00, 1006.6,   98.6, -999.0
30-09-2022, 00:31:50,    319,    0.0,    6.7,   0.00,   0.00, 1006.6,   98.6, -999.0
30-09-2022, 00:32:00,    319,    0.0,    6.6,   0.00,   0.00, 1006.6,   98.6, -999.0
30-09-2022, 00:32:10,    319,    0.0,    6.6,   0.00,   0.00, 1006.6,   98.6, -999.0
30-09-2022, 00:32:20,    319,    0.0,    6.6,   0.00,   0.00, 1006.6,   98.6, -999.0
30-09-2022, 00:32:30,    319,    0.0,    6.6,   0.00,   0.00, 1006.6,   98.6, -999.0
30-09-2022, 00:32:40,    319,    0.0,    6.5,   0.00,   0.00, 1006.6,   98.6, -999.0
30-09-2022, 00:32:50,    319,    0.0,    6.5,   0.00,   0.00, 1006.6,   98.6, -999.0
30-09-2022, 00:33:00,    319,    0.0,    6.5,   0.00,   0.00, 1006.6,   98.6, -999.0
30-09-2022, 00:33:10,    319,    0.0,    6.5,   0.00,   0.00, 1006.5,   98.6, -999.0
30-09-2022, 00:33:20,    319,    0.0,    6.4,   0.00,   0.00, 1006.5,   98.6, -999.0
30-09-2022, 00:33:30,    319,    0.0,    6.4,   0.00,   0.00, 1006.5,   98.6, -999.0
30-09-2022, 00:33:40,    319,    0.0,    6.4,   0.00,   0.00, 1006.5,   98.6, -999.0
30-09-2022, 00:33:50,    319,    0.0,    6.5,   0.00,   0.00, 1006.5,   98.6, -999.0
30-09-2022, 00:34:00,    319,    0.0,    6.5,   0.00,   0.00, 1006.5,   98.6, -999.0
30-09-2022, 00:34:10,    319,    0.0,    6.5,   0.00,   0.00, 1006.5,   98.6, -999.0
30-09-2022, 00:34:20,    319,    0.0,    6.5,   0.00,   0.00, 1006.5,   98.7, -999.0
30-09-2022, 00:34:30,    319,    0.0,    6.5,   0.00,   0.00, 1006.5,   98.5, -999.0
30-09-2022, 00:34:39,    319,    0.0,    6.5,   0.00,   0.00, 1006.5,   98.6, -999.0
30-09-2022, 00:34:50,    319,    0.0,    6.5,   0.00,   0.00, 1006.5,   98.6, -999.0
30-09-2022, 00:34:59,    319,    0.0,    6.6,   0.00,   0.00, 1006.5,   98.7, -999.0
30-09-2022, 00:35:09,    319,    0.0,    6.7,   0.00,   0.00, 1006.5,   98.6, -999.0
30-09-2022, 00:35:19,    319,    0.0,    6.8,   0.00,   0.00, 1006.5,   98.6, -999.0
30-09-2022, 00:35:29,    319,    0.0,    6.9,   0.00,   0.00, 1006.5,   98.6, -999.0
30-09-2022, 00:35:39,    319,    0.0,    7.0,   0.00,   0.00, 1006.5,   98.6, -999.0
30-09-2022, 00:35:49,    319,    0.0,    6.9,   0.00,   0.00, 1006.5,   98.6, -999.0
30-09-2022, 00:35:59,    319,    0.0,    6.9,   0.00,   0.00, 1006.5,   98.6, -999.0
30-09-2022, 00:36:09,    319,    0.0,    7.0,   0.00,   0.00, 1006.5,   98.6, -999.0
30-09-2022, 00:36:19,    319,    0.0,    7.0,   0.00,   0.00, 1006.5,   98.6, -999.0
30-09-2022, 00:36:29,    319,    0.0,    7.0,   0.00,   0.00, 1006.5,   98.6, -999.0
30-09-2022, 00:36:39,    319,    0.0,    7.0,   0.00,   0.00, 1006.5,   98.6, -999.0
30-09-2022, 00:36:49,    319,    0.0,    7.0,   0.00,   0.00, 1006.6,   98.7, -999.0
30-09-2022, 00:36:59,    319,    0.0,    7.0,   0.00,   0.00, 1006.5,   98.6, -999.0
30-09-2022, 00:37:09,    319,    0.0,    7.0,   0.00,   0.00, 1006.6,   98.6, -999.0
30-09-2022, 00:37:19,    319,    0.0,    6.9,   0.00,   0.00, 1006.5,   98.6, -999.0
30-09-2022, 00:37:29,    319,    0.0,    7.0,   0.00,   0.00, 1006.6,   98.6, -999.0
30-09-2022, 00:37:39,    319,    0.0,    6.9,   0.00,   0.00, 1006.5,   98.6, -999.0
30-09-2022, 00:37:48,    319,    0.0,    7.0,   0.00,   0.00, 1006.5,   98.7, -999.0
30-09-2022, 00:37:59,    319,    0.0,    7.0,   0.00,   0.00, 1006.5,   98.6, -999.0
30-09-2022, 00:38:09,    319,    0.0,    7.0,   0.00,   0.00, 1006.5,   98.6, -999.0
30-09-2022, 00:38:18,    319,    0.0,    7.1,   0.00,   0.00, 1006.6,   98.6, -999.0
30-09-2022, 00:38:28,    319,    0.0,    7.0,   0.00,   0.00, 1006.5,   98.6, -999.0
30-09-2022, 00:38:38,    319,    0.0,    7.1,   0.00,   0.00, 1006.5,   98.6, -999.0
30-09-2022, 00:38:48,    319,    0.0,    7.0,   0.00,   0.00, 1006.5,   98.6, -999.0
30-09-2022, 00:38:58,    319,    0.0,    7.0,   0.00,   0.00, 1006.5,   98.6, -999.0
30-09-2022, 00:39:08,    319,    0.0,    7.0,   0.00,   0.00, 1006.5,   98.6, -999.0
30-09-2022, 00:39:18,    319,    0.0,    7.0,   0.00,   0.00, 1006.5,   98.6, -999.0
30-09-2022, 00:39:28,    319,    0.0,    6.9,   0.00,   0.00, 1006.5,   98.6, -999.0
30-09-2022, 00:39:38,    319,    0.0,    7.0,   0.00,   0.00, 1006.5,   98.6, -999.0
30-09-2022, 00:39:48,    319,    0.0,    6.9,   0.00,   0.00, 1006.5,   98.7, -999.0
30-09-2022, 00:39:58,    319,    0.0,    6.9,   0.00,   0.00, 1006.5,   98.6, -999.0
30-09-2022, 00:40:08,    319,    0.0,    6.8,   0.00,   0.00, 1006.5,   98.6, -999.0
30-09-2022, 00:40:18,    319,    0.0,    6.8,   0.00,   0.00, 1006.5,   98.6, -999.0
30-09-2022, 00:40:28,    319,    0.0,    6.8,   0.00,   0.00, 1006.5,   98.6, -999.0
30-09-2022, 00:40:38,    319,    0.0,    6.8,   0.00,   0.00, 1006.5,   98.6, -999.0
30-09-2022, 00:40:48,    319,    0.0,    6.8,   0.00,   0.00, 1006.5,   98.7, -999.0
30-09-2022, 00:40:57,    319,    0.0,    6.8,   0.00,   0.00, 1006.5,   98.6, -999.0
30-09-2022, 00:41:08,    319,    0.0,    6.9,   0.00,   0.00, 1006.5,   98.6, -999.0
30-09-2022, 00:41:18,    320,    0.0,    6.9,   0.00,   0.00, 1006.6,   98.6, -999.0
30-09-2022, 00:41:27,    319,    0.0,    6.9,   0.00,   0.00, 1006.5,   98.6, -999.0
30-09-2022, 00:41:37,    319,    0.0,    6.8,   0.00,   0.00, 1006.6,   98.6, -999.0
30-09-2022, 00:41:48,    319,    0.0,    6.9,   0.00,   0.00, 1006.6,   98.6, -999.0
30-09-2022, 00:41:57,    319,    0.0,    6.9,   0.00,   0.00, 1006.6,   98.6, -999.0
30-09-2022, 00:42:07,    319,    0.0,    6.9,   0.00,   0.00, 1006.6,   98.6, -999.0
30-09-2022, 00:42:17,    319,    0.0,    6.8,   0.00,   0.00, 1006.6,   98.6, -999.0
30-09-2022, 00:42:27,    319,    0.0,    6.8,   0.00,   0.00, 1006.6,   98.6, -999.0
30-09-2022, 00:42:37,    319,    0.0,    6.8,   0.00,   0.00, 1006.6,   98.6, -999.0
30-09-2022, 00:42:47,    319,    0.0,    6.9,   0.00,   0.00, 1006.6,   98.6, -999.0
30-09-2022, 00:42:57,    319,    0.0,    6.8,   0.00,   0.00, 1006.5,   98.6, -999.0
30-09-2022, 00:43:07,    319,    0.0,    6.8,   0.00,   0.00, 1006.6,   98.6, -999.0
30-09-2022, 00:43:17,    319,    0.0,    6.7,   0.00,   0.00, 1006.6,   98.6, -999.0
30-09-2022, 00:43:27,    319,    0.0,    6.8,   0.00,   0.00, 1006.6,   98.6, -999.0
30-09-2022, 00:43:37,    319,    0.0,    6.8,   0.00,   0.00, 1006.6,   98.6, -999.0
30-09-2022, 00:43:47,    319,    0.0,    6.7,   0.00,   0.00, 1006.6,   98.6, -999.0
30-09-2022, 00:43:57,    319,    0.0,    6.8,   0.00,   0.00, 1006.6,   98.6, -999.0
30-09-2022, 00:44:06,    319,    0.0,    6.8,   0.00,   0.00, 1006.6,   98.6, -999.0
30-09-2022, 00:44:17,    319,    0.0,    6.7,   0.00,   0.00, 1006.6,   98.6, -999.0
30-09-2022, 00:44:27,    319,    0.0,    6.7,   0.00,   0.00, 1006.6,   98.6, -999.0
30-09-2022, 00:44:36,    319,    0.0,    6.6,   0.00,   0.00, 1006.6,   98.6, -999.0
30-09-2022, 00:44:47,    319,    0.0,    6.7,   0.00,   0.00, 1006.6,   98.6, -999.0
30-09-2022, 00:44:57,    319,    0.0,    6.7,   0.00,   0.00, 1006.6,   98.6, -999.0
30-09-2022, 00:45:06,    319,    0.0,    6.8,   0.00,   0.00, 1006.6,   98.6, -999.0
30-09-2022, 00:45:16,    319,    0.0,    6.8,   0.00,   0.00, 1006.6,   98.6, -999.0
30-09-2022, 00:45:26,    319,    0.0,    6.8,   0.00,   0.00, 1006.6,   98.6, -999.0
30-09-2022, 00:45:36,    319,    0.0,    6.8,   0.00,   0.00, 1006.6,   98.6, -999.0
30-09-2022, 00:45:46,    319,    0.0,    6.8,   0.00,   0.00, 1006.6,   98.6, -999.0
30-09-2022, 00:45:56,    319,    0.0,    6.8,   0.00,   0.00, 1006.6,   98.6, -999.0
30-09-2022, 00:46:06,    319,    0.0,    6.8,   0.00,   0.00, 1006.7,   98.6, -999.0
30-09-2022, 00:46:16,    319,    0.0,    6.7,   0.00,   0.00, 1006.6,   98.6, -999.0
30-09-2022, 00:46:26,    319,    0.0,    6.7,   0.00,   0.00, 1006.6,   98.6, -999.0
30-09-2022, 00:46:36,    319,    0.0,    6.8,   0.00,   0.00, 1006.6,   98.7, -999.0